Wetbulb
58.25 56.56 55.23 53.45 53.72 52.17 51.07 50.53 46.40 46.40 44.79 44.25 43.49 41.83 41.16 39.64 38.89 37.18 35.43 32.91 33.84 33.23
54.69 53.85 53.70 52.39 52.05 51.75 49.82 47.86 45.80 45.13 43.23 42.91 42.94 41.44 40.15 38.25 38.88 36.20 34.72 35.14 32.22 32.64
53.56 53.24 50.91 48.61 48.19 46.43 45.48 45.86 44.24 43.05 42.19 42.46 41.49 41.02 38.93 37.38 36.34 35.72 34.85 34.90 33.53 33.26
47.58 46.25 45.63 46.54 45.38 44.72 45.59 44.75 44.35 42.50 41.70 40.47 39.53 38.88 37.94 36.70 36.01 34.88 34.51 33.65 33.57 32.29
45.85 45.52 45.09 46.04 45.03 44.79 44.54 44.17 42.59 41.64 40.49 39.60 38.50 37.82 36.33 35.57 35.24 34.42 33.90 33.16 32.68 32.10
44.25 44.74 46.03 46.22 45.08 44.27 43.50 41.68 40.30 39.72 38.31 37.69 37.22 36.99 36.75 35.84 34.76 34.20 33.73 33.08 32.32 32.14
45.13 45.20 44.86 44.07 42.39 41.73 41.12 39.76 39.69 38.97 37.68 36.81 36.09 35.61 35.19 34.17 33.39 33.30 33.18 33.22 32.69 32.40
43.51 43.57 42.09 41.14 40.36 40.59 38.46 36.91 37.19 36.20 35.77 35.51 35.48 35.98 34.97 34.64 33.40 32.60 31.93 32.03 32.07 31.97
39.77 38.22 37.60 37.13 36.10 35.97 35.46 35.67 35.41 34.67 34.39 34.48 36.11 38.07 37.05 34.00 31.93 31.46 30.82 30.06 29.74 28.74
36.57 36.09 36.17 36.50 36.17 37.13 34.80 34.14 32.99 33.47 34.26 34.41 35.92 37.98 37.18 35.70 31.54 30.20 28.81 27.49 26.83 27.29
35.87 35.61 35.94 35.61 34.84 34.53 34.27 33.19 32.84 32.93 33.19 32.85 34.19 35.95 35.67 32.94 29.23 27.69 26.84 25.75 25.54 24.49
36.71 35.96 35.56 34.68 34.23 34.41 33.77 33.06 33.00 33.34 32.05 32.13 33.22 36.22 35.79 30.51 26.81 26.57 25.86 26.33 25.71 26.65
36.61 35.21 34.05 34.13 33.17 33.24 34.15 32.63 32.71 31.83 31.47 33.25 31.06 35.05 34.54 30.13 25.90 23.49 25.56 24.59 26.11 30.02
35.51 34.59 33.83 32.93 32.98 31.94 30.59 29.93 28.55 26.98 26.05 24.34 25.38 25.72 32.75 32.86 25.92 25.79 25.82 25.49 24.69 25.55
MSLP
1006.56 1006.82 1007.21 1007.71 1008.17 1008.55 1009.04 1009.49 1010.52 1011.74 1012.72 1013.41 1013.98 1014.43 1015.21 1015.88 1017.02 1017.41 1017.94 1018.77 1019.22 1019.84
1006.14 1006.54 1006.85 1007.06 1007.56 1008.20 1008.75 1009.53 1010.42 1011.37 1012.27 1013.30 1014.11 1014.68 1015.27 1015.57 1017.60 1017.43 1018.21 1018.71 1019.36 1019.82
1005.67 1005.87 1006.23 1006.98 1007.52 1008.08 1008.88 1009.56 1010.31 1011.16 1012.13 1013.14 1014.12 1014.87 1015.56 1016.39 1017.00 1018.09 1018.17 1018.97 1019.79 1020.20
1005.98 1006.46 1006.63 1007.07 1007.63 1008.04 1008.73 1009.63 1010.34 1010.98 1012.08 1013.06 1013.97 1014.78 1015.75 1016.34 1017.24 1017.77 1018.30 1018.99 1019.91 1019.95
1006.20 1006.50 1007.11 1007.19 1007.69 1008.18 1008.76 1009.83 1010.74 1011.48 1012.41 1013.29 1014.23 1015.09 1015.95 1016.76 1017.91 1018.19 1018.82 1018.66 1019.98 1020.02
1006.54 1006.64 1007.28 1007.59 1008.05 1008.63 1009.21 1010.01 1011.09 1011.98 1012.98 1013.92 1014.71 1015.64 1016.72 1017.18 1018.43 1018.62 1018.25 1018.99 1019.95 1019.84
1007.10 1007.21 1007.41 1007.99 1008.51 1009.57 1010.04 1010.63 1011.45 1012.29 1013.36 1014.46 1015.37 1016.38 1017.32 1017.83 1018.69 1018.84 1019.25 1018.96 1019.72 1020.38
1007.56 1007.85 1008.31 1008.73 1009.25 1010.39 1011.17 1011.68 1012.16 1012.93 1014.25 1015.25 1016.13 1017.07 1017.77 1018.14 1018.16 1019.61 1019.24 1019.76 1020.21 1020.54
1008.28 1008.73 1009.51 1010.04 1010.56 1011.38 1012.13 1012.80 1013.45 1014.07 1015.09 1016.09 1016.83 1017.91 1017.98 1019.15 1019.35 1019.67 1019.82 1020.25 1020.42 1020.65
1009.70 1010.15 1010.67 1011.11 1011.52 1012.63 1013.03 1013.88 1014.35 1015.38 1016.29 1017.00 1017.63 1018.20 1018.87 1018.06 1019.69 1019.76 1020.00 1020.09 1020.57 1020.83
1011.03 1011.71 1012.14 1011.83 1012.84 1013.29 1013.91 1014.30 1015.04 1016.03 1016.86 1017.42 1018.10 1018.35 1018.77 1019.55 1019.67 1019.54 1020.54 1020.47 1020.73 1020.81
1011.34 1012.35 1013.11 1014.02 1013.49 1014.34 1014.52 1015.20 1016.07 1017.17 1017.14 1017.66 1018.20 1019.10 1019.28 1019.39 1019.57 1020.16 1020.52 1020.69 1020.66 1020.60
1012.69 1013.17 1014.06 1014.55 1014.75 1015.19 1015.08 1015.65 1017.19 1017.65 1017.43 1018.61 1018.93 1018.77 1019.13 1019.58 1019.82 1020.10 1020.54 1020.71 1020.62 1020.52
1014.00 1014.42 1014.94 1015.27 1015.93 1016.16 1016.30 1016.84 1017.40 1017.71 1018.55 1019.02 1018.96 1018.87 1019.40 1019.51 1019.86 1020.17 1020.32 1020.36 1020.56 1020.51
Wind_Speed
9 8 9 11 9 11 12 12 13 12 9 8 9 9 9 8 4 6 6 7 4 3
7 9 10 11 9 7 7 8 12 11 11 10 10 9 9 7 3 6 4 5 5 4
9 9 7 7 9 9 8 11 12 12 11 11 10 9 7 6 9 4 5 4 4 3
5 5 6 7 7 9 11 11 12 13 13 12 12 11 8 9 7 8 6 5 2 5
6 7 6 8 8 10 10 9 10 10 11 12 11 9 10 8 5 6 5 6 5 5
5 6 6 7 8 8 11 11 11 13 13 12 11 11 8 8 4 4 5 5 5 4
3 6 8 8 11 10 11 13 13 13 13 12 11 10 8 8 6 2 2 5 1 2
8 8 9 11 12 11 10 11 14 16 13 12 11 7 7 7 5 2 4 3 2 2
11 12 12 13 13 14 13 13 14 14 13 11 7 13 12 7 5 5 6 2 3 3
12 12 12 13 14 12 14 14 14 13 12 11 10 13 11 13 3 2 1 2 1 3
12 12 11 12 12 13 11 13 11 11 9 8 6 10 9 7 4 4 1 1 1 2
12 11 10 9 11 10 12 11 9 6 9 7 5 12 11 6 4 3 1 1 3 3
10 11 10 9 9 7 8 10 6 6 7 7 6 9 6 5 3 1 1 2 2 7
10 11 10 9 6 7 8 6 6 7 6 5 4 4 0 1 2 2 0 2 3 3
Wind_Direction
215 195 198 192 189 189 188 186 166 171 166 159 157 147 149 135 144 137 132 137 131 129
185 187 197 191 184 187 170 161 159 157 147 148 152 148 145 136 159 132 116 123 137 122
198 199 177 162 168 159 146 152 152 146 143 146 146 142 136 129 117 132 116 114 131 106
162 149 138 148 147 143 142 150 157 152 149 147 142 136 128 120 129 130 129 113 165 160
151 146 154 148 144 144 144 149 153 143 137 130 122 115 114 106 90 103 140 132 196 187
154 139 147 140 135 136 137 131 125 118 115 108 105 98 95 104 135 163 129 161 199 204
100 123 124 124 116 122 128 123 117 113 110 108 104 109 123 128 146 137 109 84 34 311
94 98 103 108 106 110 106 104 108 104 101 99 101 111 108 107 100 141 83 68 9 332
86 91 93 94 92 98 98 95 98 96 99 98 100 117 117 105 86 58 39 1 352 325
82 88 93 99 97 103 97 97 88 86 91 89 96 100 89 76 63 160 128 88 16 335
87 87 93 96 109 107 112 107 106 107 102 99 107 109 112 147 149 87 67 90 255 313
113 109 102 112 99 107 105 99 95 118 116 118 123 168 166 132 101 114 8 318 344 302
84 89 86 88 82 84 97 87 112 126 116 169 172 148 137 134 142 67 334 318 311 320
85 93 95 85 89 91 95 112 97 87 84 89 104 41 212 241 165 218 183 340 311 272